Year,Month,Day,Hour,Minute,Value (Times are PST for temperature in C)
2023,05,15,00,00,17.20
2023,05,15,00,01,17.20
2023,05,15,00,02,17.10
2023,05,15,00,03,17.10
2023,05,15,00,04,17.10
2023,05,15,00,05,17.10
2023,05,15,00,06,17.00
2023,05,15,00,07,17.00
2023,05,15,00,08,17.00
2023,05,15,00,09,17.00
2023,05,15,00,10,16.90
2023,05,15,00,11,16.90
2023,05,15,00,12,16.90
2023,05,15,00,13,16.90
2023,05,15,00,14,16.80
2023,05,15,00,15,16.80
2023,05,15,00,16,16.80
2023,05,15,00,17,16.80
2023,05,15,00,18,16.70
2023,05,15,00,19,16.70
2023,05,15,00,20,16.70
2023,05,15,00,21,16.70
2023,05,15,00,22,16.70
2023,05,15,00,23,16.60
2023,05,15,00,24,16.60
2023,05,15,00,25,16.60
2023,05,15,00,26,16.50
2023,05,15,00,27,16.50
2023,05,15,00,28,16.50
2023,05,15,00,29,16.40
2023,05,15,00,30,16.40
2023,05,15,00,31,16.40
2023,05,15,00,32,16.40
2023,05,15,00,33,16.40
2023,05,15,00,34,16.40
2023,05,15,00,35,16.40
2023,05,15,00,36,16.30
2023,05,15,00,37,16.30
2023,05,15,00,38,16.30
2023,05,15,00,39,16.30
2023,05,15,00,40,16.30
2023,05,15,00,41,16.20
2023,05,15,00,42,16.20
2023,05,15,00,43,16.20
2023,05,15,00,44,16.20
2023,05,15,00,45,16.20
2023,05,15,00,46,16.20
2023,05,15,00,47,16.10
2023,05,15,00,48,16.10
2023,05,15,00,49,16.10
2023,05,15,00,50,16.10
2023,05,15,00,51,16.10
2023,05,15,00,52,16.00
2023,05,15,00,53,16.00
2023,05,15,00,54,16.00
2023,05,15,00,55,15.90
2023,05,15,00,56,15.90
2023,05,15,00,57,15.90
2023,05,15,00,58,15.90
2023,05,15,00,59,15.90
2023,05,15,01,00,15.90
2023,05,15,01,01,15.80
2023,05,15,01,02,15.80
2023,05,15,01,03,15.80
2023,05,15,01,04,15.80
2023,05,15,01,05,15.80
2023,05,15,01,06,15.80
2023,05,15,01,07,15.80
2023,05,15,01,08,15.70
2023,05,15,01,09,15.70
2023,05,15,01,10,15.70
2023,05,15,01,11,15.70
2023,05,15,01,12,15.60
2023,05,15,01,13,15.60
2023,05,15,01,14,15.60
2023,05,15,01,15,15.60
2023,05,15,01,16,15.60
2023,05,15,01,17,15.60
2023,05,15,01,18,15.50
2023,05,15,01,19,15.50
2023,05,15,01,20,15.50
2023,05,15,01,21,15.50
2023,05,15,01,22,15.50
2023,05,15,01,23,15.40
2023,05,15,01,24,15.40
2023,05,15,01,25,15.40
2023,05,15,01,26,15.40
2023,05,15,01,27,15.40
2023,05,15,01,28,15.40
2023,05,15,01,29,15.30
2023,05,15,01,30,15.30
2023,05,15,01,31,15.30
2023,05,15,01,32,15.30
2023,05,15,01,33,15.30
2023,05,15,01,34,15.30
2023,05,15,01,35,15.20
2023,05,15,01,36,15.20
2023,05,15,01,37,15.20
2023,05,15,01,38,15.20
2023,05,15,01,39,15.20
2023,05,15,01,40,15.20
2023,05,15,01,41,15.20
2023,05,15,01,42,15.10
2023,05,15,01,43,15.10
2023,05,15,01,44,15.10
2023,05,15,01,45,15.10
2023,05,15,01,46,15.10
2023,05,15,01,47,15.10
2023,05,15,01,48,15.00
2023,05,15,01,49,15.00
2023,05,15,01,50,15.00
2023,05,15,01,51,15.00
2023,05,15,01,52,15.00
2023,05,15,01,53,15.00
2023,05,15,01,54,15.00
2023,05,15,01,55,15.00
2023,05,15,01,56,14.90
2023,05,15,01,57,14.90
2023,05,15,01,58,14.90
2023,05,15,01,59,14.90
2023,05,15,02,00,14.90
2023,05,15,02,01,14.90
2023,05,15,02,02,14.90
2023,05,15,02,03,14.80
2023,05,15,02,04,14.80
2023,05,15,02,05,14.80
2023,05,15,02,06,14.80
2023,05,15,02,07,14.80
2023,05,15,02,08,14.80
2023,05,15,02,09,14.80
2023,05,15,02,10,14.80
2023,05,15,02,11,14.70
2023,05,15,02,12,14.70
2023,05,15,02,13,14.70
2023,05,15,02,14,14.70
2023,05,15,02,15,14.70
2023,05,15,02,16,14.60
2023,05,15,02,17,14.60
2023,05,15,02,18,14.60
2023,05,15,02,19,14.60
2023,05,15,02,20,14.60
2023,05,15,02,21,14.60
2023,05,15,02,22,14.60
2023,05,15,02,23,14.50
2023,05,15,02,24,14.50
2023,05,15,02,25,14.50
2023,05,15,02,26,14.40
2023,05,15,02,27,14.40
2023,05,15,02,28,14.40
2023,05,15,02,29,14.40
2023,05,15,02,30,14.40
2023,05,15,02,31,14.30
2023,05,15,02,32,14.30
2023,05,15,02,33,14.30
2023,05,15,02,34,14.30
2023,05,15,02,35,14.30
2023,05,15,02,36,14.30
2023,05,15,02,37,14.20
2023,05,15,02,38,14.20
2023,05,15,02,39,14.20
2023,05,15,02,40,14.20
2023,05,15,02,41,14.20
2023,05,15,02,42,14.20
2023,05,15,02,43,14.10
2023,05,15,02,44,14.10
2023,05,15,02,45,14.10
2023,05,15,02,46,14.10
2023,05,15,02,47,14.10
2023,05,15,02,48,14.10
2023,05,15,02,49,14.10
2023,05,15,02,50,14.10
2023,05,15,02,51,14.10
2023,05,15,02,52,14.10
2023,05,15,02,53,14.10
2023,05,15,02,54,14.10
2023,05,15,02,55,14.00
2023,05,15,02,56,14.10
2023,05,15,02,57,14.10
2023,05,15,02,58,14.00
2023,05,15,02,59,14.00
2023,05,15,03,00,14.00
2023,05,15,03,01,14.00
2023,05,15,03,02,14.00
2023,05,15,03,03,14.00
2023,05,15,03,04,14.00
2023,05,15,03,05,14.00
2023,05,15,03,06,14.00
2023,05,15,03,07,14.00
2023,05,15,03,08,14.00
2023,05,15,03,09,14.00
2023,05,15,03,10,14.00
2023,05,15,03,11,13.90
2023,05,15,03,12,13.90
2023,05,15,03,13,13.90
2023,05,15,03,14,13.90
2023,05,15,03,15,13.90
2023,05,15,03,16,13.90
2023,05,15,03,17,13.90
2023,05,15,03,18,13.90
2023,05,15,03,19,13.90
2023,05,15,03,20,13.90
2023,05,15,03,21,13.90
2023,05,15,03,22,13.90
2023,05,15,03,23,13.90
2023,05,15,03,24,13.80
2023,05,15,03,25,13.80
2023,05,15,03,26,13.80
2023,05,15,03,27,13.80
2023,05,15,03,28,13.80
2023,05,15,03,29,13.80
2023,05,15,03,30,13.90
2023,05,15,03,31,13.80
2023,05,15,03,32,13.80
2023,05,15,03,33,13.80
2023,05,15,03,34,13.80
2023,05,15,03,35,13.80
2023,05,15,03,36,13.80
2023,05,15,03,37,13.80
2023,05,15,03,38,13.80
2023,05,15,03,39,13.80
2023,05,15,03,40,13.80
2023,05,15,03,41,13.80
2023,05,15,03,42,13.80
2023,05,15,03,43,13.80
2023,05,15,03,44,13.80
2023,05,15,03,45,13.80
2023,05,15,03,46,13.90
2023,05,15,03,47,13.90
2023,05,15,03,48,13.90
2023,05,15,03,49,13.90
2023,05,15,03,50,13.90
2023,05,15,03,51,13.90
2023,05,15,03,52,13.90
2023,05,15,03,53,13.90
2023,05,15,03,54,13.90
2023,05,15,03,55,13.90
2023,05,15,03,56,13.90
2023,05,15,03,57,13.90
2023,05,15,03,58,14.00
2023,05,15,03,59,14.00
2023,05,15,04,00,14.00
2023,05,15,04,01,14.00
2023,05,15,04,02,14.00
2023,05,15,04,03,14.00
2023,05,15,04,04,14.00
2023,05,15,04,05,14.00
2023,05,15,04,06,14.00
2023,05,15,04,07,14.00
2023,05,15,04,08,14.00
2023,05,15,04,09,14.00
2023,05,15,04,10,14.00
2023,05,15,04,11,14.00
2023,05,15,04,12,14.00
2023,05,15,04,13,14.00
2023,05,15,04,14,13.90
2023,05,15,04,15,13.90
2023,05,15,04,16,13.90
2023,05,15,04,17,13.90
2023,05,15,04,18,13.90
2023,05,15,04,19,13.90
2023,05,15,04,20,13.90
2023,05,15,04,21,13.90
2023,05,15,04,22,13.90
2023,05,15,04,23,14.00
2023,05,15,04,24,14.00
2023,05,15,04,25,14.00
2023,05,15,04,26,14.00
2023,05,15,04,27,14.00
2023,05,15,04,28,14.10
2023,05,15,04,29,14.10
2023,05,15,04,30,14.10
2023,05,15,04,31,14.10
2023,05,15,04,32,14.20
2023,05,15,04,33,14.20
2023,05,15,04,34,14.30
2023,05,15,04,35,14.30
2023,05,15,04,36,14.40
2023,05,15,04,37,14.40
2023,05,15,04,38,14.50
2023,05,15,04,39,14.50
2023,05,15,04,40,14.60
2023,05,15,04,41,14.60
2023,05,15,04,42,14.70
2023,05,15,04,43,14.70
2023,05,15,04,44,14.70
2023,05,15,04,45,14.70
2023,05,15,04,46,14.70
2023,05,15,04,47,14.70
2023,05,15,04,48,14.70
2023,05,15,04,49,14.70
2023,05,15,04,50,14.70
2023,05,15,04,51,14.70
2023,05,15,04,52,14.70
2023,05,15,04,53,14.80
2023,05,15,04,54,14.80
2023,05,15,04,55,14.70
2023,05,15,04,56,14.70
2023,05,15,04,57,14.70
2023,05,15,04,58,14.70
2023,05,15,04,59,14.70
2023,05,15,05,00,14.70
2023,05,15,05,01,14.70
2023,05,15,05,02,14.70
2023,05,15,05,03,14.70
2023,05,15,05,04,14.70
2023,05,15,05,05,14.70
2023,05,15,05,06,14.80
2023,05,15,05,07,14.80
2023,05,15,05,08,14.80
2023,05,15,05,09,14.90
2023,05,15,05,10,14.90
2023,05,15,05,11,14.90
2023,05,15,05,12,15.00
2023,05,15,05,13,15.00
2023,05,15,05,14,15.00
2023,05,15,05,15,15.10
2023,05,15,05,16,15.10
2023,05,15,05,17,15.10
2023,05,15,05,18,15.20
2023,05,15,05,19,15.20
2023,05,15,05,20,15.20
2023,05,15,05,21,15.20
2023,05,15,05,22,15.30
2023,05,15,05,23,15.30
2023,05,15,05,24,15.30
2023,05,15,05,25,15.30
2023,05,15,05,26,15.30
2023,05,15,05,27,15.40
2023,05,15,05,28,15.40
2023,05,15,05,29,15.40
2023,05,15,05,30,15.40
2023,05,15,05,31,15.50
2023,05,15,05,32,15.50
2023,05,15,05,33,15.50
2023,05,15,05,34,15.50
2023,05,15,05,35,15.50
2023,05,15,05,36,15.50
2023,05,15,05,37,15.50
2023,05,15,05,38,15.50
2023,05,15,05,39,15.50
2023,05,15,05,40,15.50
2023,05,15,05,41,15.50
2023,05,15,05,42,15.50
2023,05,15,05,43,15.50
2023,05,15,05,44,15.50
2023,05,15,05,45,15.50
2023,05,15,05,46,15.40
2023,05,15,05,47,15.40
2023,05,15,05,48,15.40
2023,05,15,05,49,15.40
2023,05,15,05,50,15.40
2023,05,15,05,51,15.40
2023,05,15,05,52,15.30
2023,05,15,05,53,15.30
2023,05,15,05,54,15.30
2023,05,15,05,55,15.30
2023,05,15,05,56,15.30
2023,05,15,05,57,15.20
2023,05,15,05,58,15.20
2023,05,15,05,59,15.20
2023,05,15,06,00,15.10
2023,05,15,06,01,15.10
2023,05,15,06,02,15.10
2023,05,15,06,03,15.10
2023,05,15,06,04,15.00
2023,05,15,06,05,15.00
2023,05,15,06,06,15.00
2023,05,15,06,07,14.90
2023,05,15,06,08,14.90
2023,05,15,06,09,14.90
2023,05,15,06,10,14.90
2023,05,15,06,11,14.80
2023,05,15,06,12,14.80
2023,05,15,06,13,14.80
2023,05,15,06,14,14.80
2023,05,15,06,15,14.80
2023,05,15,06,16,14.80
2023,05,15,06,17,14.80
2023,05,15,06,18,14.80
2023,05,15,06,19,14.80
2023,05,15,06,20,14.80
2023,05,15,06,21,14.80
2023,05,15,06,22,14.80
2023,05,15,06,23,14.70
2023,05,15,06,24,14.80
2023,05,15,06,25,14.80
2023,05,15,06,26,14.80
2023,05,15,06,27,14.80
2023,05,15,06,28,14.80
2023,05,15,06,29,14.80
2023,05,15,06,30,14.80
2023,05,15,06,31,14.90
2023,05,15,06,32,14.90
2023,05,15,06,33,14.90
2023,05,15,06,34,14.90
2023,05,15,06,35,14.90
2023,05,15,06,36,14.90
2023,05,15,06,37,14.90
2023,05,15,06,38,14.90
2023,05,15,06,39,14.90
2023,05,15,06,40,15.00
2023,05,15,06,41,15.00
2023,05,15,06,42,15.00
2023,05,15,06,43,15.00
2023,05,15,06,44,15.00
2023,05,15,06,45,15.00
2023,05,15,06,46,15.10
2023,05,15,06,47,15.10
2023,05,15,06,48,15.10
2023,05,15,06,49,15.20
2023,05,15,06,50,15.20
2023,05,15,06,51,15.20
2023,05,15,06,52,15.20
2023,05,15,06,53,15.20
2023,05,15,06,54,15.30
2023,05,15,06,55,15.30
2023,05,15,06,56,15.30
2023,05,15,06,57,15.30
2023,05,15,06,58,15.30
2023,05,15,06,59,15.30
2023,05,15,07,00,15.30
2023,05,15,07,01,15.40
2023,05,15,07,02,15.40
2023,05,15,07,03,15.40
2023,05,15,07,04,15.40
2023,05,15,07,05,15.50
2023,05,15,07,06,15.50
2023,05,15,07,07,15.50
2023,05,15,07,08,15.50
2023,05,15,07,09,15.60
2023,05,15,07,10,15.60
2023,05,15,07,11,15.60
2023,05,15,07,12,15.60
2023,05,15,07,13,15.60
2023,05,15,07,14,15.70
2023,05,15,07,15,15.70
2023,05,15,07,16,15.70
2023,05,15,07,17,15.80
2023,05,15,07,18,15.80
2023,05,15,07,19,15.80
2023,05,15,07,20,15.80
2023,05,15,07,21,15.90
2023,05,15,07,22,15.90
2023,05,15,07,23,15.90
2023,05,15,07,24,15.90
2023,05,15,07,25,15.90
2023,05,15,07,26,15.90
2023,05,15,07,27,16.00
2023,05,15,07,28,16.00
2023,05,15,07,29,16.00
2023,05,15,07,30,16.00
2023,05,15,07,31,16.10
2023,05,15,07,32,16.10
2023,05,15,07,33,16.10
2023,05,15,07,34,16.10
2023,05,15,07,35,16.10
2023,05,15,07,36,16.20
2023,05,15,07,37,16.20
2023,05,15,07,38,16.20
2023,05,15,07,39,16.30
2023,05,15,07,40,16.30
2023,05,15,07,41,16.30
2023,05,15,07,42,16.40
2023,05,15,07,43,16.40
2023,05,15,07,44,16.40
2023,05,15,07,45,16.50
2023,05,15,07,46,16.50
2023,05,15,07,47,16.50
2023,05,15,07,48,16.60
2023,05,15,07,49,16.60
2023,05,15,07,50,16.70
2023,05,15,07,51,16.70
2023,05,15,07,52,16.70
2023,05,15,07,53,16.80
2023,05,15,07,54,16.80
2023,05,15,07,55,16.80
2023,05,15,07,56,16.90
2023,05,15,07,57,17.00
2023,05,15,07,58,17.00
2023,05,15,07,59,17.10
2023,05,15,08,00,17.10
2023,05,15,08,01,17.10
2023,05,15,08,02,17.20
2023,05,15,08,03,17.20
2023,05,15,08,04,17.30
2023,05,15,08,05,17.30
2023,05,15,08,06,17.30
2023,05,15,08,07,17.30
2023,05,15,08,08,17.30
2023,05,15,08,09,17.40
2023,05,15,08,10,17.40
2023,05,15,08,11,17.40
2023,05,15,08,12,17.40
2023,05,15,08,13,17.50
2023,05,15,08,14,17.50
2023,05,15,08,15,17.50
2023,05,15,08,16,17.60
2023,05,15,08,17,17.60
2023,05,15,08,18,17.60
2023,05,15,08,19,17.60
2023,05,15,08,20,17.60
2023,05,15,08,21,17.60
2023,05,15,08,22,17.60
2023,05,15,08,23,17.60
2023,05,15,08,24,17.60
2023,05,15,08,25,17.70
2023,05,15,08,26,17.70
2023,05,15,08,27,17.70
2023,05,15,08,28,17.70
2023,05,15,08,29,17.80
2023,05,15,08,30,17.80
2023,05,15,08,31,17.80
2023,05,15,08,32,17.90
2023,05,15,08,33,17.90
2023,05,15,08,34,17.90
2023,05,15,08,35,18.00
2023,05,15,08,36,18.00
2023,05,15,08,37,18.10
2023,05,15,08,38,18.20
2023,05,15,08,39,18.20
2023,05,15,08,40,18.30
2023,05,15,08,41,18.30
2023,05,15,08,42,18.40
2023,05,15,08,43,18.50
2023,05,15,08,44,18.60
2023,05,15,08,45,18.60
2023,05,15,08,46,18.70
2023,05,15,08,47,18.80
2023,05,15,08,48,18.90
2023,05,15,08,49,19.00
2023,05,15,08,50,19.10
2023,05,15,08,51,19.10
2023,05,15,08,52,19.20
2023,05,15,08,53,19.30
2023,05,15,08,54,19.30
2023,05,15,08,55,19.40
2023,05,15,08,56,19.50
2023,05,15,08,57,19.50
2023,05,15,08,58,19.60
2023,05,15,08,59,19.70
2023,05,15,09,00,19.80
2023,05,15,09,01,19.80
2023,05,15,09,02,19.80
2023,05,15,09,03,19.90
2023,05,15,09,04,19.90
2023,05,15,09,05,20.00
2023,05,15,09,06,20.00
2023,05,15,09,07,20.00
2023,05,15,09,08,20.10
2023,05,15,09,09,20.10
2023,05,15,09,10,20.10
2023,05,15,09,11,20.20
2023,05,15,09,12,20.30
2023,05,15,09,13,20.30
2023,05,15,09,14,20.30
2023,05,15,09,15,20.40
2023,05,15,09,16,20.50
2023,05,15,09,17,20.50
2023,05,15,09,18,20.60
2023,05,15,09,19,20.70
2023,05,15,09,20,20.70
2023,05,15,09,21,20.70
2023,05,15,09,22,20.80
2023,05,15,09,23,20.80
2023,05,15,09,24,20.90
2023,05,15,09,25,20.90
2023,05,15,09,26,20.90
2023,05,15,09,27,21.00
2023,05,15,09,28,21.10
2023,05,15,09,29,21.10
2023,05,15,09,30,21.20
2023,05,15,09,31,21.20
2023,05,15,09,32,21.30
2023,05,15,09,33,21.40
2023,05,15,09,34,21.50
2023,05,15,09,35,21.50
2023,05,15,09,36,21.60
2023,05,15,09,37,21.70
2023,05,15,09,38,21.80
2023,05,15,09,39,21.80
2023,05,15,09,40,21.90
2023,05,15,09,41,21.90
2023,05,15,09,42,22.00
2023,05,15,09,43,22.10
2023,05,15,09,44,22.10
2023,05,15,09,45,22.20
2023,05,15,09,46,22.20
2023,05,15,09,47,22.30
2023,05,15,09,48,22.40
2023,05,15,09,49,22.50
2023,05,15,09,50,22.60
2023,05,15,09,51,22.70
2023,05,15,09,52,22.70
2023,05,15,09,53,22.80
2023,05,15,09,54,22.80
2023,05,15,09,55,22.90
2023,05,15,09,56,23.00
2023,05,15,09,57,23.00
2023,05,15,09,58,23.00
2023,05,15,09,59,23.10
2023,05,15,10,00,23.10
2023,05,15,10,01,23.10
2023,05,15,10,02,23.20
2023,05,15,10,03,23.20
2023,05,15,10,04,23.20
2023,05,15,10,05,23.20
2023,05,15,10,06,23.20
2023,05,15,10,07,23.20
2023,05,15,10,08,23.20
2023,05,15,10,09,23.30
2023,05,15,10,10,23.30
2023,05,15,10,11,23.30
2023,05,15,10,12,23.30
2023,05,15,10,13,23.30
2023,05,15,10,14,23.30
2023,05,15,10,15,23.30
2023,05,15,10,16,23.30
2023,05,15,10,17,23.30
2023,05,15,10,18,23.40
2023,05,15,10,19,23.40
2023,05,15,10,20,23.40
2023,05,15,10,21,23.40
2023,05,15,10,22,23.40
2023,05,15,10,23,23.50
2023,05,15,10,24,23.50
2023,05,15,10,25,23.50
2023,05,15,10,26,23.60
2023,05,15,10,27,23.60
2023,05,15,10,28,23.60
2023,05,15,10,29,23.70
2023,05,15,10,30,23.70
2023,05,15,10,31,23.80
2023,05,15,10,32,23.80
2023,05,15,10,33,23.80
2023,05,15,10,34,23.80
2023,05,15,10,35,23.90
2023,05,15,10,36,23.90
2023,05,15,10,37,24.00
2023,05,15,10,38,24.00
2023,05,15,10,39,24.10
2023,05,15,10,40,24.10
2023,05,15,10,41,24.10
2023,05,15,10,42,24.20
2023,05,15,10,43,24.20
2023,05,15,10,44,24.20
2023,05,15,10,45,24.20
2023,05,15,10,46,24.10
2023,05,15,10,47,24.10
2023,05,15,10,48,24.10
2023,05,15,10,49,24.10
2023,05,15,10,50,24.10
2023,05,15,10,51,24.10
2023,05,15,10,52,24.10
2023,05,15,10,53,24.10
2023,05,15,10,54,24.10
2023,05,15,10,55,24.10
2023,05,15,10,56,24.10
2023,05,15,10,57,24.10
2023,05,15,10,58,24.10
2023,05,15,10,59,24.10
2023,05,15,11,00,24.10
2023,05,15,11,01,24.20
2023,05,15,11,02,24.20
2023,05,15,11,03,24.20
2023,05,15,11,04,24.30
2023,05,15,11,05,24.30
2023,05,15,11,06,24.40
2023,05,15,11,07,24.40
2023,05,15,11,08,24.50
2023,05,15,11,09,24.50
2023,05,15,11,10,24.60
2023,05,15,11,11,24.60
2023,05,15,11,12,24.70
2023,05,15,11,13,24.80
2023,05,15,11,14,24.80
2023,05,15,11,15,24.90
2023,05,15,11,16,24.90
2023,05,15,11,17,25.00
2023,05,15,11,18,25.10
2023,05,15,11,19,25.10
2023,05,15,11,20,25.20
2023,05,15,11,21,25.20
2023,05,15,11,22,25.30
2023,05,15,11,23,25.30
2023,05,15,11,24,25.30
2023,05,15,11,25,25.40
2023,05,15,11,26,25.40
2023,05,15,11,27,25.40
2023,05,15,11,28,25.50
2023,05,15,11,29,25.60
2023,05,15,11,30,25.60
2023,05,15,11,31,25.60
2023,05,15,11,32,25.70
2023,05,15,11,33,25.70
2023,05,15,11,34,25.70
2023,05,15,11,35,25.70
2023,05,15,11,36,25.80
2023,05,15,11,37,25.80
2023,05,15,11,38,25.80
2023,05,15,11,39,25.80
2023,05,15,11,40,25.80
2023,05,15,11,41,25.90
2023,05,15,11,42,25.90
2023,05,15,11,43,25.90
2023,05,15,11,44,26.00
2023,05,15,11,45,26.10
2023,05,15,11,46,26.10
2023,05,15,11,47,26.20
2023,05,15,11,48,26.20
2023,05,15,11,49,26.30
2023,05,15,11,50,26.30
2023,05,15,11,51,26.40
2023,05,15,11,52,26.40
2023,05,15,11,53,26.40
2023,05,15,11,54,26.40
2023,05,15,11,55,26.40
2023,05,15,11,56,26.40
2023,05,15,11,57,26.50
2023,05,15,11,58,26.50
2023,05,15,11,59,26.50
2023,05,15,12,00,26.50
2023,05,15,12,01,26.60
2023,05,15,12,02,26.60
2023,05,15,12,03,26.50
2023,05,15,12,04,26.50
2023,05,15,12,05,26.50
2023,05,15,12,06,26.50
2023,05,15,12,07,26.50
2023,05,15,12,08,26.50
2023,05,15,12,09,26.50
2023,05,15,12,10,26.50
2023,05,15,12,11,26.40
2023,05,15,12,12,26.50
2023,05,15,12,13,26.40
2023,05,15,12,14,26.40
2023,05,15,12,15,26.50
2023,05,15,12,16,26.50
2023,05,15,12,17,26.60
2023,05,15,12,18,26.60
2023,05,15,12,19,26.60
2023,05,15,12,20,26.60
2023,05,15,12,21,26.70
2023,05,15,12,22,26.70
2023,05,15,12,23,26.80
2023,05,15,12,24,26.80
2023,05,15,12,25,26.90
2023,05,15,12,26,27.00
2023,05,15,12,27,27.00
2023,05,15,12,28,27.10
2023,05,15,12,29,27.20
2023,05,15,12,30,27.30
2023,05,15,12,31,27.30
2023,05,15,12,32,27.40
2023,05,15,12,33,27.50
2023,05,15,12,34,27.60
2023,05,15,12,35,27.60
2023,05,15,12,36,27.60
2023,05,15,12,37,27.70
2023,05,15,12,38,27.70
2023,05,15,12,39,27.80
2023,05,15,12,40,27.80
2023,05,15,12,41,27.90
2023,05,15,12,42,27.90
2023,05,15,12,43,28.00
2023,05,15,12,44,28.10
2023,05,15,12,45,28.20
2023,05,15,12,46,28.20
2023,05,15,12,47,28.30
2023,05,15,12,48,28.30
2023,05,15,12,49,28.40
2023,05,15,12,50,28.50
2023,05,15,12,51,28.50
2023,05,15,12,52,28.60
2023,05,15,12,53,28.70
2023,05,15,12,54,28.80
2023,05,15,12,55,28.90
2023,05,15,12,56,28.90
2023,05,15,12,57,29.00
2023,05,15,12,58,29.10
2023,05,15,12,59,29.10
2023,05,15,13,00,29.10
2023,05,15,13,01,29.20
2023,05,15,13,02,29.20
2023,05,15,13,03,29.30
2023,05,15,13,04,29.40
2023,05,15,13,05,29.40
2023,05,15,13,06,29.50
2023,05,15,13,07,29.50
2023,05,15,13,08,29.60
2023,05,15,13,09,29.60
2023,05,15,13,10,29.70
2023,05,15,13,11,29.70
2023,05,15,13,12,29.70
2023,05,15,13,13,29.70
2023,05,15,13,14,29.70
2023,05,15,13,15,29.70
2023,05,15,13,16,29.60
2023,05,15,13,17,29.60
2023,05,15,13,18,29.60
2023,05,15,13,19,29.60
2023,05,15,13,20,29.60
2023,05,15,13,21,29.50
2023,05,15,13,22,29.60
2023,05,15,13,23,29.60
2023,05,15,13,24,29.50
2023,05,15,13,25,29.60
2023,05,15,13,26,29.60
2023,05,15,13,27,29.60
2023,05,15,13,28,29.70
2023,05,15,13,29,29.70
2023,05,15,13,30,29.70
2023,05,15,13,31,29.70
2023,05,15,13,32,29.70
2023,05,15,13,33,29.80
2023,05,15,13,34,29.80
2023,05,15,13,35,29.80
2023,05,15,13,36,29.80
2023,05,15,13,37,29.80
2023,05,15,13,38,29.80
2023,05,15,13,39,29.80
2023,05,15,13,40,29.80
2023,05,15,13,41,29.80
2023,05,15,13,42,29.80
2023,05,15,13,43,29.80
2023,05,15,13,44,29.80
2023,05,15,13,45,29.70
2023,05,15,13,46,29.70
2023,05,15,13,47,29.60
2023,05,15,13,48,29.50
2023,05,15,13,49,29.50
2023,05,15,13,50,29.40
2023,05,15,13,51,29.30
2023,05,15,13,52,29.30
2023,05,15,13,53,29.20
2023,05,15,13,54,29.20
2023,05,15,13,55,29.20
2023,05,15,13,56,29.20
2023,05,15,13,57,29.20
2023,05,15,13,58,29.10
2023,05,15,13,59,29.10
2023,05,15,14,00,29.10
2023,05,15,14,01,29.10
2023,05,15,14,02,29.10
2023,05,15,14,03,29.10
2023,05,15,14,04,29.10
2023,05,15,14,05,29.10
2023,05,15,14,06,29.20
2023,05,15,14,07,29.20
2023,05,15,14,08,29.20
2023,05,15,14,09,29.20
2023,05,15,14,10,29.20
2023,05,15,14,11,29.20
2023,05,15,14,12,29.20
2023,05,15,14,13,29.20
2023,05,15,14,14,29.20
2023,05,15,14,15,29.20
2023,05,15,14,16,29.20
2023,05,15,14,17,29.20
2023,05,15,14,18,29.30
2023,05,15,14,19,29.30
2023,05,15,14,20,29.30
2023,05,15,14,21,29.30
2023,05,15,14,22,29.30
2023,05,15,14,23,29.30
2023,05,15,14,24,29.20
2023,05,15,14,25,29.30
2023,05,15,14,26,29.30
2023,05,15,14,27,29.30
2023,05,15,14,28,29.30
2023,05,15,14,29,29.30
2023,05,15,14,30,29.30
2023,05,15,14,31,29.20
2023,05,15,14,32,29.20
2023,05,15,14,33,29.10
2023,05,15,14,34,29.10
2023,05,15,14,35,29.00
2023,05,15,14,36,29.00
2023,05,15,14,37,29.00
2023,05,15,14,38,29.00
2023,05,15,14,39,29.00
2023,05,15,14,40,29.10
2023,05,15,14,41,29.10
2023,05,15,14,42,29.10
2023,05,15,14,43,29.10
2023,05,15,14,44,29.20
2023,05,15,14,45,29.20
2023,05,15,14,46,29.30
2023,05,15,14,47,29.40
2023,05,15,14,48,29.40
2023,05,15,14,49,29.40
2023,05,15,14,50,29.40
2023,05,15,14,51,29.40
2023,05,15,14,52,29.40
2023,05,15,14,53,29.40
2023,05,15,14,54,29.40
2023,05,15,14,55,29.30
2023,05,15,14,56,29.30
2023,05,15,14,57,29.30
2023,05,15,14,58,29.30
2023,05,15,14,59,29.30
2023,05,15,15,00,29.30
2023,05,15,15,01,29.30
2023,05,15,15,02,29.30
2023,05,15,15,03,29.30
2023,05,15,15,04,29.30
2023,05,15,15,05,29.30
2023,05,15,15,06,29.20
2023,05,15,15,07,29.20
2023,05,15,15,08,29.20
2023,05,15,15,09,29.20
2023,05,15,15,10,29.20
2023,05,15,15,11,29.20
2023,05,15,15,12,29.20
2023,05,15,15,13,29.20
2023,05,15,15,14,29.30
2023,05,15,15,15,29.30
2023,05,15,15,16,29.30
2023,05,15,15,17,29.40
2023,05,15,15,18,29.50
2023,05,15,15,19,29.50
2023,05,15,15,20,29.60
2023,05,15,15,21,29.60
2023,05,15,15,22,29.70
2023,05,15,15,23,29.70
2023,05,15,15,24,29.80
2023,05,15,15,25,29.80
2023,05,15,15,26,29.80
2023,05,15,15,27,29.80
2023,05,15,15,28,29.80
2023,05,15,15,29,29.90
2023,05,15,15,30,29.90
2023,05,15,15,31,29.90
2023,05,15,15,32,30.00
2023,05,15,15,33,30.00
2023,05,15,15,34,30.00
2023,05,15,15,35,30.00
2023,05,15,15,36,30.00
2023,05,15,15,37,30.00
2023,05,15,15,38,30.00
2023,05,15,15,39,30.00
2023,05,15,15,40,30.00
2023,05,15,15,41,30.10
2023,05,15,15,42,30.10
2023,05,15,15,43,30.10
2023,05,15,15,44,30.10
2023,05,15,15,45,30.10
2023,05,15,15,46,30.10
2023,05,15,15,47,30.10
2023,05,15,15,48,30.10
2023,05,15,15,49,30.10
2023,05,15,15,50,30.10
2023,05,15,15,51,30.10
2023,05,15,15,52,30.10
2023,05,15,15,53,30.10
2023,05,15,15,54,30.10
2023,05,15,15,55,30.10
2023,05,15,15,56,30.20
2023,05,15,15,57,30.20
2023,05,15,15,58,30.20
2023,05,15,15,59,30.20
2023,05,15,16,00,30.30
2023,05,15,16,01,30.40
2023,05,15,16,02,30.40
2023,05,15,16,03,30.40
2023,05,15,16,04,30.50
2023,05,15,16,05,30.50
2023,05,15,16,06,30.50
2023,05,15,16,07,30.50
2023,05,15,16,08,30.50
2023,05,15,16,09,30.50
2023,05,15,16,10,30.40
2023,05,15,16,11,30.40
2023,05,15,16,12,30.40
2023,05,15,16,13,30.30
2023,05,15,16,14,30.30
2023,05,15,16,15,30.30
2023,05,15,16,16,30.30
2023,05,15,16,17,30.30
2023,05,15,16,18,30.30
2023,05,15,16,19,30.30
2023,05,15,16,20,30.30
2023,05,15,16,21,30.40
2023,05,15,16,22,30.40
2023,05,15,16,23,30.40
2023,05,15,16,24,30.40
2023,05,15,16,25,30.40
2023,05,15,16,26,30.50
2023,05,15,16,27,30.50
2023,05,15,16,28,30.60
2023,05,15,16,29,30.60
2023,05,15,16,30,30.60
2023,05,15,16,31,30.60
2023,05,15,16,32,30.70
2023,05,15,16,33,30.70
2023,05,15,16,34,30.80
2023,05,15,16,35,30.80
2023,05,15,16,36,30.80
2023,05,15,16,37,30.80
2023,05,15,16,38,30.80
2023,05,15,16,39,30.90
2023,05,15,16,40,30.90
2023,05,15,16,41,30.90
2023,05,15,16,42,30.90
2023,05,15,16,43,31.00
2023,05,15,16,44,31.00
2023,05,15,16,45,31.10
2023,05,15,16,46,31.20
2023,05,15,16,47,31.20
2023,05,15,16,48,31.20
2023,05,15,16,49,31.30
2023,05,15,16,50,31.30
2023,05,15,16,51,31.30
2023,05,15,16,52,31.30
2023,05,15,16,53,31.40
2023,05,15,16,54,31.40
2023,05,15,16,55,31.40
2023,05,15,16,56,31.40
2023,05,15,16,57,31.50
2023,05,15,16,58,31.50
2023,05,15,16,59,31.60
2023,05,15,17,00,31.60
2023,05,15,17,01,31.60
2023,05,15,17,02,31.60
2023,05,15,17,03,31.60
2023,05,15,17,04,31.60
2023,05,15,17,05,31.60
2023,05,15,17,06,31.60
2023,05,15,17,07,31.60
2023,05,15,17,08,31.60
2023,05,15,17,09,31.60
2023,05,15,17,10,31.60
2023,05,15,17,11,31.60
2023,05,15,17,12,31.60
2023,05,15,17,13,31.50
2023,05,15,17,14,31.50
2023,05,15,17,15,31.50
2023,05,15,17,16,31.30
2023,05,15,17,17,31.20
2023,05,15,17,18,31.10
2023,05,15,17,19,30.90